Powrót do katalogu

YUNHAI 2-2E

AktywnyPogodaLEO
NORAD 59284·PAYLOAD·🇨🇳 China

Wystrzelony Mar 21, 2024 z Jiuquan Satellite Launch Center

Loading…

Następne Przeloty (najbliższe 24 godziny)

TLE

ŚwieżeSource: Space-Track

Epoka: Sep 14, 2026, 21:54 UTC

1 59284U 24052E   26257.91314731 -.00000089  00000-0  29041-4 0  9990
2 59284  50.0110 302.5649 0011690  12.1751 347.9444 14.27990219119752

Śledź YUNHAI 2-2E w czasie rzeczywistym z AllMySat

Download on the App Store